Tracking 30743 objects as of 21-Jun-2025
HD Live streaming from Space Station
objects crossing your sky now

CZ-3C DEB

Track CZ-3C DEB now!


NORAD ID: 40868
Int'l Code: 2012-008AJ
Perigee: 1,403.7 km
Apogee: 34,610.4 km
Inclination: 22.2 °
Period: 631.3 minutes
Semi major axis: 24378 km
RCS: Unknown
Launch date: February 24, 2012
Source: People's Republic of China (PRC)
Launch site: Xichang Space Center, China (XSC)

Note: This is SATELLITE DEBRIS
Your satellite tracking list
Your tracking list is empty




NASA's NSSDC Master Catalog

Two Line Element Set (TLE):
1 40868U 12008AJ  25169.33515981 -.00000202  00000-0  00000+0 0  9999
2 40868  22.2226  16.7214 6810764 251.4945  27.7154  2.28088723987715
Source of the keplerian elements: AFSPC